contact:dominique.lefevre@mio.osupytheas.fr, maurice.libes@osupytheas.fr, didier.mallarino@osupytheas.fr
Project:EMSO http://www.emso-fr.org/EMSO-France
Depth: 2436.0 m
Title:EMSO Ligure Ouest : Data MII capteur MICROCAT
DateTime_Computer,Latitude,Longitude,Temperature,Conductivity,Pressure,DateTime_Instrument
DateTime_Computer,Latitude,Longitude,degC,S m-1,dbar,DateTime_Instrument
2017-11-05T00:00:45Z,42.805,6.029,13.2954,4.59967,2471.942,2017-11-05T02:02:12Z
2017-11-05T00:02:20Z,42.805,6.029,13.2953,4.59972,2472.002,2017-11-05T02:03:47Z
2017-11-05T00:03:55Z,42.805,6.029,13.2950,4.59974,2471.957,2017-11-05T02:05:21Z
2017-11-05T00:05:30Z,42.805,6.029,13.2951,4.59970,2472.002,2017-11-05T02:06:56Z
2017-11-05T00:07:05Z,42.805,6.029,13.2953,4.59972,2472.002,2017-11-05T02:08:31Z
2017-11-05T00:08:39Z,42.805,6.029,13.2951,4.59965,2472.002,2017-11-05T02:10:06Z
2017-11-05T00:10:14Z,42.805,6.029,13.2951,4.59967,2471.979,2017-11-05T02:11:41Z
2017-11-05T00:11:49Z,42.805,6.029,13.2956,4.59967,2471.964,2017-11-05T02:13:16Z
2017-11-05T00:13:24Z,42.805,6.029,13.2956,4.59967,2471.957,2017-11-05T02:14:50Z
2017-11-05T00:14:59Z,42.805,6.029,13.2951,4.59970,2471.964,2017-11-05T02:16:25Z
2017-11-05T00:16:34Z,42.805,6.029,13.2952,4.59964,2471.942,2017-11-05T02:18:00Z
2017-11-05T00:18:08Z,42.805,6.029,13.2953,4.59969,2471.964,2017-11-05T02:19:35Z
2017-11-05T00:19:43Z,42.805,6.029,13.2950,4.59972,2471.957,2017-11-05T02:21:10Z
2017-11-05T00:21:18Z,42.805,6.029,13.2957,4.59970,2471.979,2017-11-05T02:22:45Z
2017-11-05T00:22:53Z,42.805,6.029,13.2958,4.59974,2471.957,2017-11-05T02:24:19Z
2017-11-05T00:24:28Z,42.805,6.029,13.2950,4.59969,2471.987,2017-11-05T02:25:54Z
2017-11-05T00:26:03Z,42.805,6.029,13.2948,4.59971,2471.957,2017-11-05T02:27:29Z
2017-11-05T00:27:37Z,42.805,6.029,13.2951,4.59970,2471.964,2017-11-05T02:29:04Z
2017-11-05T00:29:12Z,42.805,6.029,13.2964,4.59970,2471.957,2017-11-05T02:30:39Z
2017-11-05T00:30:47Z,42.805,6.029,13.2951,4.59968,2471.957,2017-11-05T02:32:14Z
2017-11-05T00:32:22Z,42.805,6.029,13.2956,4.59970,2471.942,2017-11-05T02:33:48Z
2017-11-05T00:33:57Z,42.805,6.029,13.2954,4.59972,2471.964,2017-11-05T02:35:23Z
2017-11-05T00:35:32Z,42.805,6.029,13.2957,4.59967,2471.934,2017-11-05T02:36:58Z
2017-11-05T00:37:06Z,42.805,6.029,13.2950,4.59975,2471.942,2017-11-05T02:38:33Z
2017-11-05T00:38:41Z,42.805,6.029,13.2950,4.59970,2471.942,2017-11-05T02:40:08Z
2017-11-05T00:40:16Z,42.805,6.029,13.2952,4.59975,2471.964,2017-11-05T02:41:43Z
2017-11-05T00:41:51Z,42.805,6.029,13.2954,4.59972,2471.957,2017-11-05T02:43:17Z
2017-11-05T00:43:26Z,42.805,6.029,13.2950,4.59965,2471.942,2017-11-05T02:44:52Z
2017-11-05T00:45:01Z,42.805,6.029,13.2958,4.59978,2471.942,2017-11-05T02:46:27Z
2017-11-05T00:46:35Z,42.805,6.029,13.2955,4.59967,2471.934,2017-11-05T02:48:02Z
2017-11-05T00:48:10Z,42.805,6.029,13.2951,4.59978,2471.919,2017-11-05T02:49:37Z
2017-11-05T00:49:45Z,42.805,6.029,13.2958,4.59971,2471.942,2017-11-05T02:51:12Z
2017-11-05T00:51:20Z,42.805,6.029,13.2953,4.59971,2471.934,2017-11-05T02:52:46Z
2017-11-05T00:52:55Z,42.805,6.029,13.2956,4.59970,2471.979,2017-11-05T02:54:21Z
2017-11-05T00:54:30Z,42.805,6.029,13.2965,4.59970,2471.934,2017-11-05T02:55:56Z
2017-11-05T00:56:04Z,42.805,6.029,13.2951,4.59966,2471.934,2017-11-05T02:57:31Z
2017-11-05T00:57:39Z,42.805,6.029,13.2948,4.59972,2471.942,2017-11-05T02:59:06Z
2017-11-05T00:59:14Z,42.805,6.029,13.2958,4.59970,2471.957,2017-11-05T03:00:40Z
2017-11-05T01:00:49Z,42.805,6.029,13.2954,4.59973,2471.897,2017-11-05T03:02:15Z
2017-11-05T01:02:24Z,42.805,6.029,13.2956,4.59978,2471.942,2017-11-05T03:03:50Z
2017-11-05T01:03:59Z,42.805,6.029,13.2957,4.59968,2471.934,2017-11-05T03:05:25Z
2017-11-05T01:05:33Z,42.805,6.029,13.2965,4.59971,2471.942,2017-11-05T03:07:00Z
2017-11-05T01:07:08Z,42.805,6.029,13.2957,4.59965,2471.934,2017-11-05T03:08:35Z
2017-11-05T01:08:43Z,42.805,6.029,13.2954,4.59970,2471.912,2017-11-05T03:10:09Z
2017-11-05T01:10:18Z,42.805,6.029,13.2954,4.59971,2471.934,2017-11-05T03:11:44Z
2017-11-05T01:11:53Z,42.805,6.029,13.2964,4.59972,2471.957,2017-11-05T03:13:19Z
2017-11-05T01:13:28Z,42.805,6.029,13.2952,4.59965,2471.971,2017-11-05T03:14:54Z
2017-11-05T01:15:02Z,42.805,6.029,13.2943,4.59972,2471.957,2017-11-05T03:16:29Z
2017-11-05T01:16:37Z,42.805,6.029,13.2951,4.59967,2471.934,2017-11-05T03:18:04Z
2017-11-05T01:18:12Z,42.805,6.029,13.2951,4.59971,2471.919,2017-11-05T03:19:38Z
2017-11-05T01:19:47Z,42.805,6.029,13.2964,4.59972,2471.919,2017-11-05T03:21:13Z
2017-11-05T01:21:22Z,42.805,6.029,13.2953,4.59975,2471.919,2017-11-05T03:22:48Z
2017-11-05T01:22:57Z,42.805,6.029,13.2957,4.59976,2471.934,2017-11-05T03:24:23Z
2017-11-05T01:24:31Z,42.805,6.029,13.2948,4.59973,2471.964,2017-11-05T03:25:58Z
2017-11-05T01:26:06Z,42.805,6.029,13.2951,4.59975,2471.942,2017-11-05T03:27:33Z
2017-11-05T01:27:41Z,42.805,6.029,13.2958,4.59972,2471.942,2017-11-05T03:29:07Z
2017-11-05T01:29:16Z,42.805,6.029,13.2957,4.59968,2471.934,2017-11-05T03:30:42Z
2017-11-05T01:30:51Z,42.805,6.029,13.2956,4.59967,2471.934,2017-11-05T03:32:17Z
2017-11-05T01:32:26Z,42.805,6.029,13.2952,4.59965,2471.957,2017-11-05T03:33:52Z
2017-11-05T01:34:00Z,42.805,6.029,13.2961,4.59965,2471.919,2017-11-05T03:35:27Z
2017-11-05T01:35:35Z,42.805,6.029,13.2962,4.59971,2471.934,2017-11-05T03:37:02Z
2017-11-05T01:37:10Z,42.805,6.029,13.2953,4.59974,2471.919,2017-11-05T03:38:36Z
2017-11-05T01:38:45Z,42.805,6.029,13.2957,4.59967,2471.979,2017-11-05T03:40:11Z
2017-11-05T01:40:20Z,42.805,6.029,13.2956,4.59970,2471.912,2017-11-05T03:41:46Z
2017-11-05T01:41:54Z,42.805,6.029,13.2948,4.59969,2471.919,2017-11-05T03:43:21Z
2017-11-05T01:43:29Z,42.805,6.029,13.2951,4.59967,2471.934,2017-11-05T03:44:56Z
2017-11-05T01:45:04Z,42.805,6.029,13.2951,4.59972,2471.919,2017-11-05T03:46:31Z
2017-11-05T01:46:39Z,42.805,6.029,13.2950,4.59966,2471.957,2017-11-05T03:48:05Z
2017-11-05T01:48:14Z,42.805,6.029,13.2951,4.59964,2471.957,2017-11-05T03:49:40Z
2017-11-05T01:49:49Z,42.805,6.029,13.2946,4.59966,2471.964,2017-11-05T03:51:15Z
2017-11-05T01:51:23Z,42.805,6.029,13.2951,4.59967,2471.949,2017-11-05T03:52:50Z
2017-11-05T01:52:58Z,42.805,6.029,13.2952,4.59970,2471.957,2017-11-05T03:54:25Z
2017-11-05T01:54:33Z,42.805,6.029,13.2958,4.59973,2471.934,2017-11-05T03:56:00Z
2017-11-05T01:56:08Z,42.805,6.029,13.2958,4.59967,2471.957,2017-11-05T03:57:34Z
2017-11-05T01:57:43Z,42.805,6.029,13.2954,4.59971,2471.912,2017-11-05T03:59:09Z
2017-11-05T01:59:18Z,42.805,6.029,13.2955,4.59974,2471.934,2017-11-05T04:00:44Z
2017-11-05T02:00:52Z,42.805,6.029,13.2957,4.59972,2471.934,2017-11-05T04:02:19Z
2017-11-05T02:02:27Z,42.805,6.029,13.2949,4.59970,2471.957,2017-11-05T04:03:54Z
2017-11-05T02:04:02Z,42.805,6.029,13.2949,4.59971,2471.942,2017-11-05T04:05:29Z
2017-11-05T02:05:37Z,42.805,6.029,13.2955,4.59970,2471.957,2017-11-05T04:07:03Z
2017-11-05T02:07:12Z,42.805,6.029,13.2954,4.59972,2471.934,2017-11-05T04:08:38Z
2017-11-05T02:08:47Z,42.805,6.029,13.2954,4.59972,2471.919,2017-11-05T04:10:13Z
2017-11-05T02:10:21Z,42.805,6.029,13.2951,4.59979,2471.934,2017-11-05T04:11:48Z
2017-11-05T02:11:56Z,42.805,6.029,13.2957,4.59977,2471.934,2017-11-05T04:13:23Z
2017-11-05T02:13:31Z,42.805,6.029,13.2956,4.59967,2471.934,2017-11-05T04:14:58Z
2017-11-05T02:15:06Z,42.805,6.029,13.2950,4.59968,2471.919,2017-11-05T04:16:32Z
2017-11-05T02:16:41Z,42.805,6.029,13.2952,4.59968,2471.957,2017-11-05T04:18:07Z
2017-11-05T02:18:16Z,42.805,6.029,13.2947,4.59971,2471.979,2017-11-05T04:19:42Z
2017-11-05T02:19:50Z,42.805,6.029,13.2954,4.59970,2471.942,2017-11-05T04:21:17Z
2017-11-05T02:21:25Z,42.805,6.029,13.2953,4.59968,2471.942,2017-11-05T04:22:52Z
2017-11-05T02:23:00Z,42.805,6.029,13.2953,4.59970,2471.919,2017-11-05T04:24:27Z
2017-11-05T02:24:35Z,42.805,6.029,13.2952,4.59973,2471.979,2017-11-05T04:26:01Z
2017-11-05T02:26:10Z,42.805,6.029,13.2963,4.59969,2471.934,2017-11-05T04:27:36Z
2017-11-05T02:27:45Z,42.805,6.029,13.2954,4.59970,2471.934,2017-11-05T04:29:11Z
2017-11-05T02:29:19Z,42.805,6.029,13.2948,4.59968,2471.919,2017-11-05T04:30:46Z
2017-11-05T02:30:54Z,42.805,6.029,13.2950,4.59964,2471.934,2017-11-05T04:32:21Z
2017-11-05T02:32:29Z,42.805,6.029,13.2951,4.59968,2471.919,2017-11-05T04:33:56Z
2017-11-05T02:34:04Z,42.805,6.029,13.2951,4.59970,2471.957,2017-11-05T04:35:30Z
2017-11-05T02:35:39Z,42.805,6.029,13.2953,4.59975,2471.957,2017-11-05T04:37:05Z
2017-11-05T02:37:14Z,42.805,6.029,13.2951,4.59970,2471.919,2017-11-05T04:38:40Z
2017-11-05T02:38:48Z,42.805,6.029,13.2952,4.59969,2471.934,2017-11-05T04:40:15Z
2017-11-05T02:40:23Z,42.805,6.029,13.2953,4.59970,2471.919,2017-11-05T04:41:50Z
2017-11-05T02:41:58Z,42.805,6.029,13.2952,4.59969,2471.942,2017-11-05T04:43:24Z
2017-11-05T02:43:33Z,42.805,6.029,13.2954,4.59970,2471.934,2017-11-05T04:44:59Z
2017-11-05T02:45:08Z,42.805,6.029,13.2950,4.59972,2471.919,2017-11-05T04:46:34Z
2017-11-05T02:46:43Z,42.805,6.029,13.2954,4.59965,2471.964,2017-11-05T04:48:09Z
2017-11-05T02:48:17Z,42.805,6.029,13.2948,4.59970,2471.942,2017-11-05T04:49:44Z
2017-11-05T02:49:52Z,42.805,6.029,13.2950,4.59970,2471.919,2017-11-05T04:51:19Z
2017-11-05T02:51:27Z,42.805,6.029,13.2955,4.59972,2471.934,2017-11-05T04:52:53Z
2017-11-05T02:53:02Z,42.805,6.029,13.2961,4.59969,2471.919,2017-11-05T04:54:28Z
2017-11-05T02:54:37Z,42.805,6.029,13.2959,4.59970,2471.942,2017-11-05T04:56:03Z
2017-11-05T02:56:12Z,42.805,6.029,13.2952,4.59972,2471.979,2017-11-05T04:57:38Z
2017-11-05T02:57:46Z,42.805,6.029,13.2958,4.59970,2471.942,2017-11-05T04:59:13Z
2017-11-05T02:59:21Z,42.805,6.029,13.2959,4.59977,2471.957,2017-11-05T05:00:48Z
2017-11-05T03:00:56Z,42.805,6.029,13.2959,4.59971,2471.957,2017-11-05T05:02:22Z
2017-11-05T03:02:31Z,42.805,6.029,13.2951,4.59968,2471.957,2017-11-05T05:03:57Z
2017-11-05T03:04:06Z,42.805,6.029,13.2955,4.59967,2471.957,2017-11-05T05:05:32Z
2017-11-05T03:05:41Z,42.805,6.029,13.2951,4.59968,2471.964,2017-11-05T05:07:07Z
2017-11-05T03:07:15Z,42.805,6.029,13.2954,4.59970,2471.979,2017-11-05T05:08:42Z
2017-11-05T03:08:50Z,42.805,6.029,13.2952,4.59967,2471.957,2017-11-05T05:10:17Z
2017-11-05T03:10:25Z,42.805,6.029,13.2950,4.59971,2471.957,2017-11-05T05:11:51Z
2017-11-05T03:12:00Z,42.805,6.029,13.2950,4.59966,2471.979,2017-11-05T05:13:26Z
2017-11-05T03:13:35Z,42.805,6.029,13.2950,4.59972,2472.002,2017-11-05T05:15:01Z
2017-11-05T03:15:09Z,42.805,6.029,13.2948,4.59969,2471.957,2017-11-05T05:16:36Z
2017-11-05T03:16:44Z,42.805,6.029,13.2954,4.59971,2471.979,2017-11-05T05:18:11Z
2017-11-05T03:18:19Z,42.805,6.029,13.2957,4.59964,2471.934,2017-11-05T05:19:46Z
2017-11-05T03:19:54Z,42.805,6.029,13.2954,4.59970,2471.971,2017-11-05T05:21:20Z
2017-11-05T03:21:29Z,42.805,6.029,13.2953,4.59972,2471.964,2017-11-05T05:22:55Z
2017-11-05T03:23:04Z,42.805,6.029,13.2953,4.59969,2471.979,2017-11-05T05:24:30Z
2017-11-05T03:24:38Z,42.805,6.029,13.2957,4.59975,2471.979,2017-11-05T05:26:05Z
2017-11-05T03:26:13Z,42.805,6.029,13.2954,4.59970,2471.957,2017-11-05T05:27:40Z
2017-11-05T03:27:48Z,42.805,6.029,13.2954,4.59973,2471.957,2017-11-05T05:29:15Z
2017-11-05T03:29:23Z,42.805,6.029,13.2957,4.59968,2471.979,2017-11-05T05:30:49Z
2017-11-05T03:30:58Z,42.805,6.029,13.2954,4.59968,2471.979,2017-11-05T05:32:24Z
2017-11-05T03:32:33Z,42.805,6.029,13.2957,4.59978,2471.979,2017-11-05T05:33:59Z
2017-11-05T03:34:07Z,42.805,6.029,13.2959,4.59975,2471.979,2017-11-05T05:35:34Z
2017-11-05T03:35:42Z,42.805,6.029,13.2959,4.59972,2472.002,2017-11-05T05:37:09Z
2017-11-05T03:37:17Z,42.805,6.029,13.2953,4.59975,2471.964,2017-11-05T05:38:44Z
2017-11-05T03:38:52Z,42.805,6.029,13.2958,4.59970,2471.964,2017-11-05T05:40:18Z
2017-11-05T03:40:27Z,42.805,6.029,13.2957,4.59970,2471.957,2017-11-05T05:41:53Z
2017-11-05T03:42:02Z,42.805,6.029,13.2957,4.59970,2472.002,2017-11-05T05:43:28Z
2017-11-05T03:43:36Z,42.805,6.029,13.2956,4.59973,2472.002,2017-11-05T05:45:03Z
2017-11-05T03:45:11Z,42.805,6.029,13.2958,4.59967,2472.002,2017-11-05T05:46:38Z
2017-11-05T03:46:46Z,42.805,6.029,13.2954,4.59968,2472.01,2017-11-05T05:48:13Z
2017-11-05T03:48:21Z,42.805,6.029,13.2953,4.59970,2471.979,2017-11-05T05:49:47Z
2017-11-05T03:49:56Z,42.805,6.029,13.2954,4.59972,2472.01,2017-11-05T05:51:22Z
2017-11-05T03:51:31Z,42.805,6.029,13.2952,4.59970,2472.024,2017-11-05T05:52:57Z
2017-11-05T03:53:05Z,42.805,6.029,13.2954,4.59971,2472.002,2017-11-05T05:54:32Z
2017-11-05T03:54:40Z,42.805,6.029,13.2954,4.59972,2472.002,2017-11-05T05:56:07Z
2017-11-05T03:56:15Z,42.805,6.029,13.2957,4.59971,2472.01,2017-11-05T05:57:42Z
2017-11-05T03:57:50Z,42.805,6.029,13.2951,4.59975,2472.024,2017-11-05T05:59:16Z
2017-11-05T03:59:25Z,42.805,6.029,13.2962,4.59967,2472.024,2017-11-05T06:00:51Z
2017-11-05T04:01:00Z,42.805,6.029,13.2953,4.59965,2472.002,2017-11-05T06:02:26Z
2017-11-05T04:02:34Z,42.805,6.029,13.2951,4.59969,2472.024,2017-11-05T06:04:01Z
2017-11-05T04:04:09Z,42.805,6.029,13.2954,4.59974,2472.047,2017-11-05T06:05:36Z
2017-11-05T04:05:44Z,42.805,6.029,13.2958,4.59971,2472.024,2017-11-05T06:07:11Z
2017-11-05T04:07:19Z,42.805,6.029,13.2955,4.59971,2472.024,2017-11-05T06:08:45Z
2017-11-05T04:08:54Z,42.805,6.029,13.2957,4.59969,2472.032,2017-11-05T06:10:20Z
2017-11-05T04:10:29Z,42.805,6.029,13.2951,4.59972,2472.024,2017-11-05T06:11:55Z
2017-11-05T04:12:03Z,42.805,6.029,13.2954,4.59968,2472.024,2017-11-05T06:13:30Z
2017-11-05T04:13:38Z,42.805,6.029,13.2957,4.59966,2472.01,2017-11-05T06:15:05Z
2017-11-05T04:15:13Z,42.805,6.029,13.2954,4.59972,2472.047,2017-11-05T06:16:40Z
2017-11-05T04:16:48Z,42.805,6.029,13.2957,4.59970,2471.987,2017-11-05T06:18:14Z
2017-11-05T04:18:23Z,42.805,6.029,13.2957,4.59970,2472.047,2017-11-05T06:19:49Z
2017-11-05T04:19:58Z,42.805,6.029,13.2952,4.59975,2471.987,2017-11-05T06:21:24Z
2017-11-05T04:21:32Z,42.805,6.029,13.2957,4.59970,2472.024,2017-11-05T06:22:59Z
2017-11-05T04:23:07Z,42.805,6.029,13.2953,4.59972,2472.01,2017-11-05T06:24:34Z
2017-11-05T04:24:42Z,42.805,6.029,13.2956,4.59974,2472.024,2017-11-05T06:26:09Z
2017-11-05T04:26:17Z,42.805,6.029,13.2956,4.59971,2472.047,2017-11-05T06:27:43Z
2017-11-05T04:27:52Z,42.805,6.029,13.2956,4.59970,2472.047,2017-11-05T06:29:18Z
2017-11-05T04:29:27Z,42.805,6.029,13.2954,4.59975,2472.032,2017-11-05T06:30:53Z
2017-11-05T04:31:01Z,42.805,6.029,13.2959,4.59970,2472.047,2017-11-05T06:32:28Z
2017-11-05T04:32:36Z,42.805,6.029,13.2953,4.59963,2472.01,2017-11-05T06:34:03Z
2017-11-05T04:34:11Z,42.805,6.029,13.2951,4.59968,2472.024,2017-11-05T06:35:37Z
2017-11-05T04:35:46Z,42.805,6.029,13.2950,4.59970,2472.047,2017-11-05T06:37:12Z
2017-11-05T04:37:21Z,42.805,6.029,13.2951,4.59969,2472.069,2017-11-05T06:38:47Z
2017-11-05T04:38:56Z,42.805,6.029,13.2954,4.59970,2472.047,2017-11-05T06:40:22Z
2017-11-05T04:40:30Z,42.805,6.029,13.2957,4.59972,2472.069,2017-11-05T06:41:57Z
2017-11-05T04:42:05Z,42.805,6.029,13.2949,4.59967,2472.077,2017-11-05T06:43:32Z
2017-11-05T04:43:40Z,42.805,6.029,13.2958,4.59971,2472.069,2017-11-05T06:45:07Z
2017-11-05T04:45:15Z,42.805,6.029,13.2955,4.59967,2472.047,2017-11-05T06:46:41Z
2017-11-05T04:46:50Z,42.805,6.029,13.2950,4.59969,2472.032,2017-11-05T06:48:16Z
2017-11-05T04:48:25Z,42.805,6.029,13.2956,4.59972,2472.069,2017-11-05T06:49:51Z
2017-11-05T04:49:59Z,42.805,6.029,13.2970,4.59970,2472.069,2017-11-05T06:51:26Z
2017-11-05T04:51:34Z,42.805,6.029,13.2954,4.59972,2472.092,2017-11-05T06:53:01Z
2017-11-05T04:53:09Z,42.805,6.029,13.2953,4.59972,2472.047,2017-11-05T06:54:35Z
2017-11-05T04:54:44Z,42.805,6.029,13.2956,4.59973,2472.092,2017-11-05T06:56:10Z
2017-11-05T04:56:19Z,42.805,6.029,13.2957,4.59972,2472.069,2017-11-05T06:57:45Z
2017-11-05T04:57:54Z,42.805,6.029,13.2954,4.59972,2472.092,2017-11-05T06:59:20Z
2017-11-05T04:59:28Z,42.805,6.029,13.2953,4.59972,2472.055,2017-11-05T07:00:55Z
2017-11-05T05:01:03Z,42.805,6.029,13.2958,4.59974,2472.069,2017-11-05T07:02:30Z
2017-11-05T05:02:38Z,42.805,6.029,13.2956,4.59972,2472.092,2017-11-05T07:04:04Z
2017-11-05T05:04:13Z,42.805,6.029,13.2953,4.59972,2472.092,2017-11-05T07:05:39Z
2017-11-05T05:05:48Z,42.805,6.029,13.2954,4.59970,2472.077,2017-11-05T07:07:14Z
2017-11-05T05:07:23Z,42.805,6.029,13.2957,4.59972,2472.069,2017-11-05T07:08:49Z
2017-11-05T05:08:57Z,42.805,6.029,13.2952,4.59978,2472.092,2017-11-05T07:10:24Z
2017-11-05T05:10:32Z,42.805,6.029,13.2958,4.59973,2472.069,2017-11-05T07:11:59Z
2017-11-05T05:12:07Z,42.805,6.029,13.2954,4.59967,2472.115,2017-11-05T07:13:33Z
2017-11-05T05:13:42Z,42.805,6.029,13.2949,4.59970,2472.077,2017-11-05T07:15:08Z
2017-11-05T05:15:17Z,42.805,6.029,13.2952,4.59968,2472.115,2017-11-05T07:16:43Z
2017-11-05T05:16:51Z,42.805,6.029,13.2961,4.59970,2472.115,2017-11-05T07:18:18Z
2017-11-05T05:18:26Z,42.805,6.029,13.2964,4.59972,2472.092,2017-11-05T07:19:53Z
2017-11-05T05:20:01Z,42.805,6.029,13.2958,4.59972,2472.115,2017-11-05T07:21:28Z
2017-11-05T05:21:36Z,42.805,6.029,13.2951,4.59973,2472.1,2017-11-05T07:23:02Z
2017-11-05T05:23:11Z,42.805,6.029,13.2946,4.59970,2472.092,2017-11-05T07:24:37Z
2017-11-05T05:24:46Z,42.805,6.029,13.2954,4.59970,2472.1,2017-11-05T07:26:12Z
2017-11-05T05:26:20Z,42.805,6.029,13.2950,4.59977,2472.115,2017-11-05T07:27:47Z
2017-11-05T05:27:55Z,42.805,6.029,13.2954,4.59972,2472.077,2017-11-05T07:29:22Z
2017-11-05T05:29:30Z,42.805,6.029,13.2957,4.59972,2472.137,2017-11-05T07:30:57Z
2017-11-05T05:31:05Z,42.805,6.029,13.2953,4.59970,2472.092,2017-11-05T07:32:31Z
2017-11-05T05:32:40Z,42.805,6.029,13.2955,4.59971,2472.137,2017-11-05T07:34:06Z
2017-11-05T05:34:15Z,42.805,6.029,13.2953,4.59973,2472.092,2017-11-05T07:35:41Z
2017-11-05T05:35:49Z,42.805,6.029,13.2954,4.59972,2472.123,2017-11-05T07:37:16Z
2017-11-05T05:37:24Z,42.805,6.029,13.2955,4.59974,2472.1,2017-11-05T07:38:51Z
2017-11-05T05:38:59Z,42.805,6.029,13.2956,4.59968,2472.137,2017-11-05T07:40:26Z
2017-11-05T05:40:34Z,42.805,6.029,13.2951,4.59967,2472.16,2017-11-05T07:42:00Z
2017-11-05T05:42:09Z,42.805,6.029,13.2951,4.59971,2472.115,2017-11-05T07:43:35Z
2017-11-05T05:43:44Z,42.805,6.029,13.2950,4.59971,2472.115,2017-11-05T07:45:10Z
2017-11-05T05:45:18Z,42.805,6.029,13.2954,4.59978,2472.123,2017-11-05T07:46:45Z
2017-11-05T05:46:53Z,42.805,6.029,13.2956,4.59974,2472.115,2017-11-05T07:48:20Z
2017-11-05T05:48:28Z,42.805,6.029,13.2957,4.59972,2472.145,2017-11-05T07:49:55Z
2017-11-05T05:50:03Z,42.805,6.029,13.2958,4.59973,2472.16,2017-11-05T07:51:29Z
2017-11-05T05:51:38Z,42.805,6.029,13.2958,4.59972,2472.123,2017-11-05T07:53:04Z
2017-11-05T05:53:13Z,42.805,6.029,13.2962,4.59972,2472.16,2017-11-05T07:54:39Z
2017-11-05T05:54:47Z,42.805,6.029,13.2956,4.59968,2472.152,2017-11-05T07:56:14Z
2017-11-05T05:56:22Z,42.805,6.029,13.2950,4.59971,2472.145,2017-11-05T07:57:49Z
2017-11-05T05:57:57Z,42.805,6.029,13.2956,4.59970,2472.123,2017-11-05T07:59:24Z
2017-11-05T05:59:32Z,42.805,6.029,13.2951,4.59965,2472.16,2017-11-05T08:00:58Z
2017-11-05T06:01:07Z,42.805,6.029,13.2957,4.59975,2472.16,2017-11-05T08:02:33Z
2017-11-05T06:02:42Z,42.805,6.029,13.2959,4.59974,2472.16,2017-11-05T08:04:08Z
2017-11-05T06:04:16Z,42.805,6.029,13.2956,4.59972,2472.123,2017-11-05T08:05:43Z
2017-11-05T06:05:51Z,42.805,6.029,13.2961,4.59975,2472.123,2017-11-05T08:07:18Z
2017-11-05T06:07:26Z,42.805,6.029,13.2958,4.59973,2472.182,2017-11-05T08:08:53Z
2017-11-05T06:09:01Z,42.805,6.029,13.2957,4.59974,2472.137,2017-11-05T08:10:27Z
2017-11-05T06:10:36Z,42.805,6.029,13.2962,4.59975,2472.182,2017-11-05T08:12:02Z
2017-11-05T06:12:11Z,42.805,6.029,13.2960,4.59971,2472.168,2017-11-05T08:13:37Z
2017-11-05T06:13:45Z,42.805,6.029,13.2953,4.59973,2472.168,2017-11-05T08:15:12Z
2017-11-05T06:15:20Z,42.805,6.029,13.2964,4.59972,2472.16,2017-11-05T08:16:47Z
2017-11-05T06:16:55Z,42.805,6.029,13.2957,4.59973,2472.182,2017-11-05T08:18:22Z
2017-11-05T06:18:30Z,42.805,6.029,13.2954,4.59973,2472.205,2017-11-05T08:19:56Z
2017-11-05T06:20:05Z,42.805,6.029,13.2957,4.59972,2472.198,2017-11-05T08:21:31Z
2017-11-05T06:21:40Z,42.805,6.029,13.2959,4.59970,2472.16,2017-11-05T08:23:06Z
2017-11-05T06:23:14Z,42.805,6.029,13.2959,4.59973,2472.182,2017-11-05T08:24:41Z
2017-11-05T06:24:49Z,42.805,6.029,13.2960,4.59975,2472.182,2017-11-05T08:26:16Z
2017-11-05T06:26:24Z,42.805,6.029,13.2961,4.59969,2472.145,2017-11-05T08:27:51Z
2017-11-05T06:27:59Z,42.805,6.029,13.2955,4.59976,2472.205,2017-11-05T08:29:25Z
2017-11-05T06:29:34Z,42.805,6.029,13.2954,4.59968,2472.182,2017-11-05T08:31:00Z
2017-11-05T06:31:09Z,42.805,6.029,13.2955,4.59973,2472.182,2017-11-05T08:32:35Z
2017-11-05T06:32:43Z,42.805,6.029,13.2954,4.59969,2472.182,2017-11-05T08:34:10Z
2017-11-05T06:34:18Z,42.805,6.029,13.2956,4.59968,2472.168,2017-11-05T08:35:45Z
2017-11-05T06:35:53Z,42.805,6.029,13.2956,4.59969,2472.168,2017-11-05T08:37:20Z
2017-11-05T06:37:28Z,42.805,6.029,13.2958,4.59970,2472.182,2017-11-05T08:38:54Z
2017-11-05T06:39:03Z,42.805,6.029,13.2954,4.59978,2472.205,2017-11-05T08:40:29Z
2017-11-05T06:40:38Z,42.805,6.029,13.2954,4.59967,2472.168,2017-11-05T08:42:04Z
2017-11-05T06:42:12Z,42.805,6.029,13.2950,4.59971,2472.205,2017-11-05T08:43:39Z
2017-11-05T06:43:47Z,42.805,6.029,13.2958,4.59971,2472.182,2017-11-05T08:45:14Z
2017-11-05T06:45:22Z,42.805,6.029,13.2959,4.59975,2472.227,2017-11-05T08:46:48Z
2017-11-05T06:46:57Z,42.805,6.029,13.2962,4.59971,2472.16,2017-11-05T08:48:23Z
2017-11-05T06:48:32Z,42.805,6.029,13.2957,4.59973,2472.168,2017-11-05T08:49:58Z
2017-11-05T06:50:07Z,42.805,6.029,13.2951,4.59974,2472.205,2017-11-05T08:51:33Z
2017-11-05T06:51:41Z,42.805,6.029,13.2953,4.59970,2472.182,2017-11-05T08:53:08Z
2017-11-05T06:53:16Z,42.805,6.029,13.2953,4.59973,2472.182,2017-11-05T08:54:43Z
2017-11-05T06:54:51Z,42.805,6.029,13.2958,4.59985,2472.205,2017-11-05T08:56:17Z
2017-11-05T06:56:26Z,42.805,6.029,13.2963,4.59975,2472.168,2017-11-05T08:57:52Z
2017-11-05T06:58:01Z,42.805,6.029,13.2961,4.59972,2472.205,2017-11-05T08:59:27Z
2017-11-05T06:59:36Z,42.805,6.029,13.2956,4.59973,2472.182,2017-11-05T09:01:02Z
2017-11-05T07:01:10Z,42.805,6.029,13.2957,4.59973,2472.19,2017-11-05T09:02:37Z
2017-11-05T07:02:45Z,42.805,6.029,13.2964,4.59972,2472.205,2017-11-05T09:04:12Z
2017-11-05T07:04:20Z,42.805,6.029,13.2957,4.59973,2472.19,2017-11-05T09:05:46Z
2017-11-05T07:05:55Z,42.805,6.029,13.2959,4.59972,2472.19,2017-11-05T09:07:21Z
2017-11-05T07:07:30Z,42.805,6.029,13.2958,4.59981,2472.182,2017-11-05T09:08:56Z
2017-11-05T07:09:05Z,42.805,6.029,13.2958,4.59983,2472.19,2017-11-05T09:10:31Z
2017-11-05T07:10:39Z,42.805,6.029,13.2960,4.59974,2472.182,2017-11-05T09:12:06Z
2017-11-05T07:12:14Z,42.805,6.029,13.2963,4.59979,2472.205,2017-11-05T09:13:41Z
2017-11-05T07:13:49Z,42.805,6.029,13.2962,4.59975,2472.168,2017-11-05T09:15:15Z
2017-11-05T07:15:24Z,42.805,6.029,13.2954,4.59975,2472.205,2017-11-05T09:16:50Z
2017-11-05T07:16:59Z,42.805,6.029,13.2958,4.59981,2472.19,2017-11-05T09:18:25Z
2017-11-05T07:18:33Z,42.805,6.029,13.2972,4.59970,2472.182,2017-11-05T09:20:00Z
2017-11-05T07:20:08Z,42.805,6.029,13.2967,4.59972,2472.205,2017-11-05T09:21:35Z
2017-11-05T07:21:43Z,42.805,6.029,13.2958,4.59973,2472.227,2017-11-05T09:23:10Z
2017-11-05T07:23:18Z,42.805,6.029,13.2957,4.59974,2472.145,2017-11-05T09:24:44Z
2017-11-05T07:24:53Z,42.805,6.029,13.2962,4.59979,2472.182,2017-11-05T09:26:19Z
2017-11-05T07:26:28Z,42.805,6.029,13.2959,4.59974,2472.19,2017-11-05T09:27:54Z
2017-11-05T07:28:02Z,42.805,6.029,13.2957,4.59973,2472.227,2017-11-05T09:29:29Z
2017-11-05T07:29:37Z,42.805,6.029,13.2956,4.59975,2472.182,2017-11-05T09:31:04Z
2017-11-05T07:31:12Z,42.805,6.029,13.2961,4.59973,2472.182,2017-11-05T09:32:39Z
2017-11-05T07:32:47Z,42.805,6.029,13.2951,4.59977,2472.168,2017-11-05T09:34:13Z
2017-11-05T07:34:22Z,42.805,6.029,13.2954,4.59977,2472.205,2017-11-05T09:35:48Z
2017-11-05T07:35:57Z,42.805,6.029,13.2959,4.59973,2472.205,2017-11-05T09:37:23Z
2017-11-05T07:37:31Z,42.805,6.029,13.2956,4.59973,2472.19,2017-11-05T09:38:58Z
2017-11-05T07:39:06Z,42.805,6.029,13.2960,4.59975,2472.205,2017-11-05T09:40:33Z
2017-11-05T07:40:41Z,42.805,6.029,13.2954,4.59972,2472.19,2017-11-05T09:42:08Z
2017-11-05T07:42:16Z,42.805,6.029,13.2959,4.59974,2472.168,2017-11-05T09:43:42Z
2017-11-05T07:43:51Z,42.805,6.029,13.2960,4.59973,2472.213,2017-11-05T09:45:17Z
2017-11-05T07:45:26Z,42.805,6.029,13.2959,4.59972,2472.168,2017-11-05T09:46:52Z